Вернуться в каталог

STARLINK-36616

АктивенСвязьSSO
NORAD 67672·PAYLOAD·🇺🇸 United States

Запущен Feb 2, 2026 с Vandenberg Space Force Base

Loading…

Ближайшие Пролёты (ближайшие 24 часа)

TLE

СвежийSource: CelesTrak SupGP

Эпоха: Sep 15, 2026, 04:04 UTC

1 67672C 26022AA  26258.16993056 -.00059501  00000+0 -18471-2 0  2584
2 67672  97.2841 289.8561 0001065  98.9404 249.3013 15.33469325    10

Отслеживайте STARLINK-36616 в реальном времени с AllMySat

Download on the App Store